#timestamp,LO_Frequency,Hit 
1500692415.3,286046998.5,N
1500692435.2,286047000.4,N
1500692455.0,286047000.6,N
1500692455.9,286047000.6,N
1500692475.8,286047000.8,N
1500692495.6,286047000.9,N
1500692515.4,286047002.4,N
1500692535.3,286046999.9,N
1500692555.1,286047000.6,N
1500692575.8,286046999.8,N
1500692595.7,286046999.8,N
1500692615.5,286047002.7,N
1500692635.4,286047002.3,N
1500692655.2,286047002.3,N
1500692675.0,286047002.3,N
1500692675.9,286047002.3,N
1500692695.8,286047001.6,N
1500692715.6,286047002.0,N
1500692735.5,286047001.3,N
1500692755.3,286047001.4,N
1500692775.1,286047001.3,N
1500692795.9,286047001.8,N
1500692815.7,286047004.2,N
1500692835.5,286047001.7,N
1500692855.4,286047001.3,N
1500692875.2,286047003.8,N
1500692895.1,286047003.8,N
1500692896.0,286047003.8,N
1500692915.8,286047004.0,N
1500692935.6,286047004.4,N
1500692955.5,286047004.4,N
1500692975.3,286047003.1,N
1500692995.2,286047003.2,N
1500693015.9,286047004.2,N
1500693035.7,286047003.1,N
1500693055.6,286047001.8,N
1500693075.4,286047004.2,N
1500693095.3,286047003.7,N
1500693115.1,286047003.5,N
1500693116.0,286047003.5,N
1500693135.8,286047004.1,N
1500693155.7,286047005.6,N
1500693175.5,286047003.1,N
1500693195.4,286047002.9,N
1500693215.2,286047005.6,N
1500693235.0,286047003.0,N
1500693235.9,286047003.0,N
1500693255.8,286047003.1,N
1500693275.1,286047003.4,N
1500693295.8,286047003.5,N
1500693315.7,286047004.7,N
1500693335.5,286047004.5,N
1500693355.4,286047004.7,N
1500693375.2,286047005.2,N
1500693395.0,286047004.7,N
1500693396.0,286047004.7,N
1500693415.8,286047007.6,N
1500693435.6,286047005.0,N
1500693455.5,286047005.8,N
1500693475.3,286047004.6,N
1500693495.1,286047004.9,N
1500693515.9,286047005.0,N
1500693535.7,286047007.0,N
1500693555.6,286047007.1,N
1500693575.4,286047007.6,N
1500693595.2,286047006.8,N
1500693615.1,286047005.1,N
1500693616.0,286047005.1,N
1500693635.8,286047007.1,N
1500693655.7,286047006.7,N
1500693675.5,286047004.6,N
1500693695.3,286047004.9,N
1500693715.2,286047004.6,N
1500693735.0,286047007.5,N
1500693735.9,286047007.5,N
1500693755.8,286047007.1,N
1500693775.6,286047007.1,N
1500693795.4,286047006.7,N
1500693815.3,286047004.7,N
1500693835.1,286047007.4,N
1500693855.8,286047007.4,N
1500693875.7,286047007.4,N
1500693895.5,286047006.7,N
1500693915.4,286047006.4,N
1500693935.2,286047006.6,N
1500693955.0,286047006.7,N
1500693955.9,286047006.7,N
1500693975.8,286047006.4,N
1500693995.6,286047006.9,N
1500694015.5,286047009.0,N
1500694035.3,286047009.1,N
1500694055.1,286047006.2,N
1500694075.9,286047007.3,N
1500694095.7,286047006.3,N
1500694115.6,286047006.8,N
1500694135.4,286047006.7,N
1500694155.2,286047007.3,N
1500694175.1,286047006.7,N
1500694176.0,286047006.7,N
1500694195.8,286047007.3,N
1500694215.6,286047006.8,N
1500694235.5,286047006.3,N
1500694255.3,286047006.8,N
1500694275.2,286047006.8,N
1500694295.9,286047009.0,N
1500694315.7,286047008.6,N
1500694335.6,286047007.0,N
1500694355.4,286047006.8,N
1500694375.3,286047009.1,N
1500694395.1,286047006.2,N
1500694396.0,286047006.2,N
1500694415.8,286047006.4,N
1500694435.7,286047006.1,N
1500694455.5,286047006.5,N
1500694475.3,286047006.4,N
1500694495.2,286047006.4,N
1500694515.0,286047008.5,N
1500694515.9,286047008.5,N
1500694535.8,286047008.7,N
1500694555.6,286047009.1,N
1500694575.4,286047006.3,N
1500694595.3,286047008.7,N
1500694615.1,286047008.5,N
1500694635.9,286047008.4,N
1500694655.7,286047006.6,N
1500694675.5,286047006.7,N
1500694695.4,286047006.4,N
1500694715.2,286047006.6,N
1500694735.0,286047006.1,N
1500694735.9,286047006.1,N
1500694755.8,286047008.5,N
1500694775.6,286047008.6,N
1500694795.5,286047008.4,N
1500694815.3,286047010.8,N
1500694835.1,286047009.0,N
1500694855.9,286047008.9,N
1500694875.7,286047010.8,N
1500694895.6,286047008.1,N
1500694915.4,286047008.4,N
1500694935.2,286047008.9,N
1500694955.1,286047006.1,N
1500694956.0,286047006.1,N
1500694975.8,286047009.2,N
1500694995.6,286047007.1,N
1500695015.5,286047006.1,N
1500695035.3,286047008.8,N
1500695055.2,286047006.5,N
1500695075.9,286047008.5,N
1500695095.7,286047009.2,N
1500695115.6,286047006.2,N
1500695135.4,286047009.0,N
1500695155.3,286047009.2,N
1500695175.1,286047006.4,N
1500695176.0,286047006.4,N
1500695195.8,286047006.2,N
1500695215.7,286047009.0,N
1500695235.5,286047008.9,N
1500695255.3,286047009.0,N
1500695275.2,286047008.6,N
1500695295.0,286047008.6,N
1500695295.9,286047008.6,N
1500695315.8,286047008.0,N
1500695335.6,286047008.8,N
1500695355.4,286047006.9,N
1500695375.3,286047008.5,N
1500695395.1,286047008.8,N
1500695415.9,286047008.6,N
1500695435.7,286047008.7,N
1500695455.5,286047007.2,N
1500695475.4,286047007.1,N
1500695495.2,286047008.9,N
1500695515.0,286047006.8,N
1500695515.9,286047006.8,N
1500695535.8,286047009.2,N
1500695555.6,286047004.6,N
1500695575.5,286047006.6,N
1500695595.3,286047006.7,N
1500695615.2,286047006.5,N
1500695635.9,286047008.6,N
1500695655.7,286047006.1,N
1500695675.6,286047009.1,N
1500695695.4,286047008.0,N
1500695715.2,286047007.9,N
1500695735.1,286047008.0,N
1500695736.0,286047008.0,N
1500695755.8,286047008.7,N
1500695775.7,286047008.6,N
1500695795.5,286047008.1,N
1500695815.3,286047007.8,N
1500695835.2,286047008.6,N
1500695855.0,286047008.5,N
1500695855.9,286047008.5,N
1500695875.8,286047007.8,N
1500695895.6,286047010.4,N
1500695915.4,286047010.0,N
1500695935.3,286047010.2,N
1500695955.1,286047010.7,N
1500695975.1,286047007.7,N
1500695976.0,286047007.7,N
1500695995.8,286047008.7,N
